Weather in Diablo

United States     37°52′40″N   121°56′02″W
temp.,
°C
wind,
m/s
gust,
m/s
humid.,
%
clouds,
%
prec.,
mm/h
press.,
hPa
HPBL,
m
25 may, wed
wed2523:00+25sw23215 0.0 100864
02:00+24wsw22225 0.0 100821
05:00+22sw11325 0.0 100811
08:00+26ne253256 0.0 1009292
11:00+33n242143 0.0 10091104
14:00+34w4319100 0.0 10081007
17:00+29wsw592573 0.0 1007409
20:00+22wsw49425 0.0 1008285
26 may, thu
thu2623:00+18wsw37555 0.0 1009228
02:00+15wsw35725 0.0 1009236
05:00+14wsw358314 0.0 1010249
08:00+16wsw366798 0.0 1011368
11:00+21w6847100 0.0 1012662
14:00+23wsw6841100 0.0 1011620
17:00+20wsw5749100 0.0 1011417
20:00+16wsw5969100 0.0 1012362
27 may, fri
fri2723:00+14wsw49795 0.0 1014307
02:00+13wsw3682100 0.0 1014241
05:00+13sw2484100 0.0 1014214
08:00+16wsw2369100 0.0 1015290
11:00+22w3539100 0.0 1015557
14:00+26wsw5728100 0.0 10141002
17:00+25wsw683199 0.0 10131061
20:00+19sw5950100 0.0 1013542
28 may, sat
sat2823:00+15sw4107399 0.0 1014468
02:00+14sw4981100 0.0 1014459
05:00+14ssw368799 0.0 1013348
08:00+16sw367680 0.0 1014574
11:00+18wsw5754100 0.0 1013985
14:00+19wsw5751100 0.0 1013978
17:00+19wsw575810 0.0 1012963
20:00+15sw58701 0.0 1012564
29 may, sun
sun2923:00+12sw4106919 0.0 1012458
02:00+11wsw48716 0.0 1013435
05:00+10wsw23710 0.0 1014240
08:00+12wsw23560 0.0 1015443
11:00+17w33360 0.0 10141046
14:00+22w44220 0.0 10111785
17:00+22w79273 0.0 10091456
20:00+17w69430 0.0 1009997